< < Back
Terminal Aerodrome Forecast


Current Version              Previous Versions:   1  2  3  4  5  6  7  8  9  

Terminal Aerodrome Forecast

650
FTUS42 KJAX 251120
TAFJAX
TAF
KJAX 251120Z 2512/2612 03006KT P6SM FEW020 BKN250
     FM251430 06012G18KT P6SM VCSH SCT025 BKN035
     FM252100 06013G19KT P6SM SCT035 BKN080
     FM260000 07006KT P6SM FEW025 SCT250=

Latest METAR

754
SAUS80 KWBC 252000
MTRJAX
METAR KJAX 251956Z 06013G16KT 10SM FEW040 SCT080 BKN250 32/21 A3005 RMK
AO2 SLP177 T03170211


USA.gov is the U.S. government's official web portal to all federal, state and local government web resources and services.